Location: Anuling
(14.1239°N, 120.8922°E)
Time: 06:12:30
(UTC+00:00)

NOAA 6 - Pass Details

Date: 14 January 2026
Orbit: 767 x 780 km, 98.6° (Epoch: 7 February)

Event Time Altitude Azimuth Distance (km) Brightness Sun altitude
Rises 10:58:12 0° 164° (SSE) 3,224 7.3 -17.1°
Reaches altitude 10° 11:00:30 10° 162° (SSE) 2,299 6.5 -17.7°
Maximum altitude 11:05:33 76° 77° (ENE) 790 3.9 -18.8°
Drops below altitude 10° 11:10:37 10° 352° (N) 2,303 6.4 -20.0°
Sets 11:12:56 0° 351° (N) 3,231 7.2 -20.5°
